This is the latest recevied weather packets stored in our database for station/object N9GKE-1. If no packets are shown the sender has not sent any weather packets the latest 10 day(s).
| Time | Temp. | Humidity | Pressure | Rain* | Wind** | Luminosity | Snow |
|---|---|---|---|---|---|---|---|
| 1777574951 | 14.44° C | 48% | 1016.3 hPa | 0 mm | - | - | - |
| 1777574578 | 14.44° C | 50% | 1016.3 hPa | 0 mm | - | - | - |
| 1777574351 | 14.44° C | 49% | 1016.4 hPa | 0 mm | - | - | - |
| 1777573979 | 15° C | 47% | 1016.3 hPa | 0 mm | - | - | - |
| 1777573751 | 15° C | 47% | 1016.3 hPa | 0 mm | - | - | - |
| 1777573377 | 14.44° C | 47% | 1016.3 hPa | 0 mm | - | - | - |
| 1777573150 | 14.44° C | 48% | 1016.4 hPa | 0 mm | - | - | - |
| 1777572777 | 14.44° C | 50% | 1016.5 hPa | 0 mm | - | - | - |
| 1777572550 | 14.44° C | 50% | 1016.5 hPa | 0 mm | - | - | - |
| 1777572178 | 14.44° C | 53% | 1016.7 hPa | 0 mm | - | - | - |
| 1777571951 | 13.89° C | 48% | 1016.7 hPa | 0 mm | - | - | - |
| 1777571578 | 13.89° C | 53% | 1016.7 hPa | 0 mm | - | - | - |
| 1777571350 | 13.89° C | 48% | 1016.7 hPa | 0 mm | - | - | - |
| 1777570979 | 13.89° C | 50% | 1016.9 hPa | 0 mm | - | - | - |
| 1777570750 | 13.89° C | 53% | 1016.9 hPa | 0 mm | - | - | - |
| 1777570377 | 13.33° C | 49% | 1017 hPa | 0 mm | - | - | - |
| 1777570150 | 13.33° C | 51% | 1017.2 hPa | 0 mm | - | - | - |
| 1777569778 | 13.33° C | 51% | 1017.3 hPa | 0 mm | - | - | - |
| 1777569551 | 13.33° C | 52% | 1017.3 hPa | 0 mm | - | - | - |
| 1777569178 | 13.33° C | 50% | 1017.3 hPa | 0 mm | - | - | - |
| 1777568949 | 13.33° C | 49% | 1017.4 hPa | 0 mm | - | - | - |
| 1777568579 | 13.33° C | 52% | 1017.4 hPa | 0 mm | - | - | - |
| 1777567978 | 13.89° C | 49% | 1017.4 hPa | 0 mm | - | - | - |
| 1777567752 | 13.89° C | 56% | 1017.5 hPa | 0 mm | - | - | - |
| 1777567377 | 13.33° C | 52% | 1017.5 hPa | 0 mm | - | - | - |
* Rain latest hour (hover to see other rain measurements)
** Current wind speed in m/s (hover to see current wind gust speed)